Monterey, CA

12:11 PM PST on February 08, 2016 (GMT -0800)
Monterey Peninsula

Weather History for KMRY - October, 2012

Change the Weather History Date:

Wednesday, October 17, 2012

  Actual Average Record
Temperature  
Mean Temperature 66 °F 59 °F  
Max Temperature 78 °F 67 °F 82 °F (2008)
Min Temperature 53 °F 50 °F 46 °F (1998)
Degree Days  
Heating Degree Days 0    
Month to date heating degree days 62  
Since 1 July heating degree days 591  
Cooling Degree Days 1    
Month to date cooling degree days 19  
Year to date cooling degree days 19  
Growing Degree Days 16 (Base 50)    
Moisture  
Dew Point 50 °F    
Average Humidity 66    
Maximum Humidity 100    
Minimum Humidity 31    
Precipitation  
Precipitation 0.00 in - 0.68 in (2004)
Month to date precipitation 0.31  
Year to date precipitation 8.03  
Since 1 July precipitation 0.38  
Sea Level Pressure  
Sea Level Pressure 29.90 in    
Wind  
Wind Speed 3 mph (NNW)    
Max Wind Speed 13 mph    
Max Gust Speed 14 mph    
Visibility 10 miles    
Events      
T = Trace of Precipitation, MM = Missing Value Source: NWS Daily Summary

Daily Weather History Graph

Daily Weather History Graph

Search for Another Location

Airport or City:

Trip Planner

Search our weather history database for the weather conditions in past years. The results will help you decide how hot, cold, wet, or windy it might be!

Date:

Astronomy

Oct. 17, 2012 Rise Set
Actual Time 7:17 AM PDT 6:27 PM PDT
Civil Twilight 6:50 AM PDT 6:53 PM PDT
Nautical Twilight 6:20 AM PDT 7:23 PM PDT
Astronomical Twilight 5:50 AM PDT 7:53 PM PDT
Moon 9:52 AM PDT (10/17) 8:13 PM PDT (10/17)
Length of Visible Light 12h 02m
Length of Day
11h 10m
Waxing Crescent, 8% of the Moon is Illuminated
Oct 17
Waxing Crescent
Oct 21
First Quarter
Oct 29
Full
Nov 6
Last Quarter
Nov 13
New

Hourly Weather History & Observations

Time (PDT) Temp. Dew Point Humidity Pressure Visibility Wind Dir Wind Speed Gust Speed Precip Events Conditions
12:54 AM 54.0 °F 52.0 °F 93% 29.93 in 10.0 mi Calm Calm - N/A   Clear
1:54 AM 55.0 °F 52.0 °F 89% 29.92 in 10.0 mi Calm Calm - N/A   Clear
2:54 AM 55.0 °F 52.0 °F 89% 29.92 in 10.0 mi Calm Calm - N/A   Clear
3:54 AM 57.0 °F 54.0 °F 89% 29.91 in 10.0 mi Calm Calm - N/A   Clear
4:54 AM 57.9 °F 55.0 °F 90% 29.90 in 10.0 mi ENE 3.5 mph - N/A   Clear
5:54 AM 57.0 °F 54.0 °F 89% 29.91 in 10.0 mi West 3.5 mph - N/A   Clear
6:54 AM 55.9 °F 55.0 °F 97% 29.92 in 6.0 mi Calm Calm - N/A   Clear
7:04 AM 55.4 °F 53.6 °F 94% 29.88 in 7.0 mi Calm Calm - N/A   Partly Cloudy
7:54 AM 55.0 °F 53.1 °F 93% 29.92 in 10.0 mi Calm Calm - N/A   Clear
8:54 AM 59.0 °F 55.9 °F 90% 29.93 in 6.0 mi Calm Calm - N/A   Clear
9:54 AM 70.0 °F 55.9 °F 61% 29.93 in 10.0 mi Calm Calm - N/A   Clear
10:54 AM 77.0 °F 45.0 °F 32% 29.92 in 10.0 mi North 3.5 mph - N/A   Clear
11:54 AM 72.0 °F 52.0 °F 49% 29.92 in 10.0 mi West 5.8 mph - N/A   Clear
12:54 PM 72.0 °F 53.1 °F 51% 29.89 in 10.0 mi WNW 3.5 mph - N/A   Clear
1:54 PM 68.0 °F 54.0 °F 61% 29.88 in 10.0 mi WNW 8.1 mph - N/A   Clear
2:54 PM 66.9 °F 53.1 °F 61% 29.87 in 10.0 mi NW 5.8 mph - N/A   Clear
3:54 PM 72.0 °F 52.0 °F 49% 29.86 in 10.0 mi Calm Calm - N/A   Clear
4:54 PM 69.1 °F 48.9 °F 49% 29.86 in 10.0 mi WSW 4.6 mph - N/A   Clear
5:54 PM 68.0 °F 50.0 °F 52% 29.85 in 10.0 mi Calm Calm - N/A   Clear
6:54 PM 66.0 °F 50.0 °F 56% 29.86 in 10.0 mi Calm Calm - N/A   Clear
7:54 PM 63.0 °F 44.1 °F 50% 29.88 in 10.0 mi Calm Calm - N/A   Clear
8:54 PM 64.9 °F 39.0 °F 39% 29.88 in 10.0 mi East 4.6 mph - N/A   Clear
9:54 PM 62.1 °F 39.0 °F 43% 29.88 in 10.0 mi East 3.5 mph - N/A   Clear
10:54 PM 63.0 °F 37.0 °F 38% 29.90 in 10.0 mi ENE 5.8 mph - N/A   Clear
11:54 PM 63.0 °F 37.0 °F 38% 29.89 in 10.0 mi ESE 5.8 mph - N/A   Clear